STARLINK-37899

Last updated on Sun Aug 09 2026 00:02:04 GMT+0000 (Coordinated Universal Time)

1 69952U 26157K 26220.58335648 -.00003983 00000+0 -63604-4 0 9993 2 69952 53.1587 174.8922 0001757 93.2926 6.1319 15.49299294 6084
UTC large
Height (km)
Speed (km/s)
/
Latitude / Longitude
Inclination (degrees)
Orbital Period (minutes)
Azimuth
Elevation
Range (km)
Doppler Factor

Next 0 passes for location: London (51.5072 / 0.1276)

No passes found over London.
STARLINK-37899